Location: *
(37.5724°S, 58.0067°E)
Time: 10:40:09
(UTC+00:00)

Cosmos 1726 - Pass Details

Date: 24 January 2021
Orbit: 480 x 499 km, 82.5° (Epoch: 27 February)

Event Time Altitude Azimuth Distance (km) Brightness Sun altitude
Rises 23:23:10 0° 178° (S) 2,590 6.5 -19.0°
Reaches altitude 10° 23:25:24 10° 169° (S) 1,703 5.6 -18.6°
Maximum altitude 23:28:52 36° 101° (E) 809 3.6 -18.2°
Drops below altitude 10° 23:32:17 10° 33° (NNE) 1,688 4.7 -17.7°
Enters shadow 23:33:51 - 26° (NNE) 2,297 5.3 -17.4°
